[[{"header":{"parameterUnit":"m.s-1","parameterCategory":1,"la1":30.2991,"la2":30.254,"lo1":-89.0895,"lo2":-89.0444,"dy":0.0017,"dx":0.0017,"nx":28,"ny":28,"refTime":"2024-02-22T09:00:00:Z","depth":0,"parameterNumber":2,"parameterNumberName":"U-component_of_WINDS"},"data":[0,0,0,0,0,0,0,0,0,0,0,0,0,0,0,0,0,0,0,0,0,0,0,0,0,0,0,0,0,0,0,0,0,0,0,0,0,0,0,0,0,0,0,0,0,0,0,0,0,0,0,0,0,0,0,0,0,0,2.689,2.689,0,2.691,2.691,2.691,2.6872,2.6871,2.687,2.6868,2.689,2.6892,2.6894,0,0,0,0,0,0,0,0,0,0,0,0,0,2.682,2.6822,2.689,2.689,2.689,2.6909,2.691,2.691,2.6872,2.6871,2.6869,2.6868,2.689,2.6892,2.6894,0,0,0,0,0,0,0,0,0,0,0,0,0,2.6846,2.6822,2.6889,2.6874,2.6872,2.6909,2.691,2.691,2.6873,2.6871,2.6869,2.6867,2.6889,2.6892,2.6894,2.6948,0,0,2.6902,2.6903,0,0,0,0,0,0,0,0,2.6845,2.6849,2.6876,2.6875,2.6873,2.6886,2.6893,2.6923,2.6873,2.6873,2.6868,2.6866,2.6891,2.6893,2.6901,2.6949,2.695,2.6903,2.6904,2.6905,2.6906,0,0,0,0,0,0,0,2.6843,2.6848,2.6897,2.6876,2.6875,2.6866,2.6867,2.6899,2.6892,2.6872,2.687,2.6873,2.689,2.6899,2.6901,2.6951,2.6902,2.6905,2.6906,2.6907,2.7044,2.7046,0,0,0,0,0,0,2.6843,2.6846,2.6897,2.6898,2.6854,2.6869,2.687,2.6884,2.6892,2.6891,2.6874,2.6871,2.6895,2.6898,2.6902,2.6966,2.6905,2.6908,2.6909,2.7042,2.7045,2.7047,0,0,0,0,0,0,2.6842,2.6848,2.6896,2.6872,2.6877,2.6872,2.6888,2.6886,2.6894,2.6893,2.6892,2.6884,2.6894,2.6898,2.6937,2.6966,2.6909,2.6911,2.704,2.7043,2.7046,2.7094,0,0,0,0,0,0,2.684,2.6848,2.6868,2.6872,2.6878,2.6931,2.6889,2.6887,2.6899,2.6894,2.6902,2.6901,2.6892,2.6933,2.694,2.6969,2.6913,2.7037,2.7041,2.7045,2.709,2.7098,2.7106,0,0,0,0,0,2.6837,2.6881,2.6869,2.6875,2.6903,2.6932,2.6936,2.6924,2.6901,2.6922,2.6921,2.6901,2.6962,2.6938,2.6944,2.6975,2.7036,2.704,2.7045,2.7086,2.7097,2.7106,0,0,0,0,0,0,2.688,2.6881,2.6868,2.6914,2.6923,2.6926,2.6951,2.6936,2.6952,2.6947,2.6933,2.6935,2.6977,2.6979,2.6952,2.7027,2.6995,2.7001,2.7024,2.7034,2.7042,2.704,2.6916,0,0,0,0,0,2.6895,2.6918,2.6917,2.6958,2.6963,2.6957,2.6969,2.6959,2.6968,2.6972,2.6974,2.6984,2.7005,2.702,2.7039,2.709,2.7091,2.7114,2.7122,2.7129,2.7134,2.7162,2.7172,2.7062,2.7062,2.7062,0,0,2.6926,2.6929,2.6944,2.6967,2.6973,2.6997,2.696,2.6988,2.7006,2.6976,2.7013,2.7015,2.7025,2.707,2.709,2.7074,2.7165,2.7134,2.714,2.7142,2.7167,2.7178,2.7187,2.7066,2.7065,2.7064,0,0,2.6994,2.6999,2.7033,2.704,2.7049,2.7045,2.7053,2.7058,2.7058,2.7095,2.7073,2.7095,2.7132,2.714,2.7149,2.7221,2.7204,2.7228,2.7269,2.7296,2.7305,2.7312,2.7338,2.7348,2.7233,2.7233,2.7233,0,2.7031,2.7067,2.7053,2.7082,2.7092,2.7067,2.7102,2.7109,2.7125,2.7133,2.7114,2.716,2.7165,2.7212,2.723,2.7238,2.7247,2.7227,2.7304,2.7312,2.7319,2.7344,2.7353,2.7236,2.7236,2.7236,2.7235,0,2.7112,2.7137,2.7164,2.7179,2.7193,2.7225,2.7216,2.7232,2.7221,2.7218,2.7256,2.7261,2.7282,2.7292,2.7282,2.7337,2.7327,2.7307,2.7274,2.7332,2.7355,2.7365,2.724,2.7239,2.7238,2.7238,0,0,2.7208,2.7215,2.7225,2.7232,2.7241,2.726,2.7291,2.7311,2.7325,2.7336,2.7362,2.7394,2.7375,2.7386,2.7376,2.74,2.7457,2.7376,2.7376,2.7391,2.7519,2.7535,2.7546,2.7445,2.7447,2.7448,2.7518,0,2.7276,2.7329,2.7317,2.737,2.7393,2.7369,2.7396,2.7404,2.7403,2.7423,2.7421,2.7444,2.7417,2.7423,2.7446,2.7445,2.7482,2.744,2.747,2.7471,2.7468,2.7558,2.7574,2.764,2.7527,2.7529,2.753,0,2.7362,2.7377,2.7432,2.7437,2.7446,2.7471,2.7488,2.7507,2.7517,2.7514,2.7526,2.7511,2.7543,2.7509,2.7552,2.7523,2.7535,2.7537,2.7539,2.7541,2.7504,2.7563,2.766,2.7671,2.7544,2.7542,2.7541,0,2.7427,2.7461,2.7498,2.7505,2.7512,2.7529,2.7533,2.7541,2.7553,2.7568,2.7576,2.7595,2.7605,2.762,2.7612,2.7588,2.7656,2.7622,2.7655,2.7656,2.7671,2.767,2.7772,2.7678,2.7678,2.7678,2.7677,0,2.7505,2.7539,2.7527,2.755,2.7588,2.7575,2.7613,2.7614,2.7621,2.7644,2.7624,2.7646,2.7633,2.7654,2.7648,2.7685,2.769,2.7689,2.7686,2.7691,2.7691,2.7698,2.7694,2.768,2.768,2.7679,2.7679,0,2.7584,2.7577,2.7616,2.7619,2.7621,2.7649,2.7652,2.7674,2.7671,2.77,2.7706,2.7702,2.7726,2.7718,2.7744,2.774,2.7787,2.7779,2.7783,2.7782,2.7816,2.7813,2.7926,2.794,2.7837,2.7838,2.7839,0,2.7634,2.7659,2.7666,2.768,2.7685,2.7707,2.772,2.7708,2.7722,2.7735,2.7755,2.7777,2.7794,2.7834,2.7833,2.7853,2.7845,2.7884,2.7848,2.7851,2.7846,2.7845,2.7848,2.7891,2.7892,2.7893,2.7894,0,2.7723,2.7719,2.7737,2.7755,2.7771,2.7785,2.7796,2.7809,2.7798,2.7815,2.7839,2.7852,2.7878,2.7901,2.7919,2.7923,2.7907,2.7905,2.7914,2.7918,2.792,2.792,2.7803,2.7902,2.7902,2.7901,2.79,2.79,2.7789,2.7811,2.7819,2.7841,2.7849,2.786,2.7881,2.788,2.79,2.7921,2.7912,2.794,2.7949,2.7972,2.7978,2.8,2.7986,2.7998,2.8002,2.8005,2.801,2.7917,2.8003,2.8003,2.8003,2.8003,2.8003,0,2.7878,2.7882,2.7902,2.7919,2.7937,2.792,2.7932,2.7948,2.7972,2.7982,2.7999,2.8027,2.8049,2.805,2.807,2.8087,2.8081,2.8093,2.8092,2.8093,2.8021,2.8012,2.8098,2.8098,2.8098,2.8098,2.8098,2.8098,2.7926,2.7963,2.7959,2.8,2.8003,2.8031,2.8039,2.805,2.8058,2.809,2.8108,2.8108,2.8114,2.8135,2.8154,2.8154,2.8162,2.8178,2.8175,2.8108,2.8098,2.8089,2.808,2.818,2.818,2.8245,2.8246,2.8246]},{"header":{"parameterUnit":"m.s-1","parameterCategory":1,"la1":30.2991,"la2":30.254,"lo1":-89.0895,"lo2":-89.0444,"dy":0.0017,"dx":0.0017,"nx":28,"ny":28,"refTime":"2024-02-22T09:00:00:Z","depth":0,"parameterNumber":3,"parameterNumberName":"V-component_of_WINDS"},"data":[0,0,0,0,0,0,0,0,0,0,0,0,0,0,0,0,0,0,0,0,0,0,0,0,0,0,0,0,0,0,0,0,0,0,0,0,0,0,0,0,0,0,0,0,0,0,0,0,0,0,0,0,0,0,0,0,0,0,5.5431,5.5433,0,5.5582,5.5583,5.5585,5.5577,5.5575,5.5573,5.5571,5.5725,5.5731,5.5737,0,0,0,0,0,0,0,0,0,0,0,0,0,5.514,5.5145,5.5431,5.5433,5.5435,5.5581,5.5583,5.5585,5.5577,5.5575,5.5572,5.557,5.5723,5.5731,5.5738,0,0,0,0,0,0,0,0,0,0,0,0,0,5.5276,5.5147,5.5431,5.5449,5.5452,5.5581,5.5583,5.5586,5.5578,5.5575,5.5571,5.5568,5.5721,5.573,5.5739,5.5861,0,0,5.5767,5.5771,0,0,0,0,0,0,0,0,5.5268,5.5286,5.5444,5.5448,5.5451,5.5557,5.5537,5.5678,5.5579,5.553,5.5571,5.5567,5.5672,5.5685,5.572,5.5868,5.5874,5.5768,5.5773,5.5777,5.578,0,0,0,0,0,0,0,5.5259,5.528,5.5491,5.5446,5.5451,5.545,5.5466,5.5564,5.5617,5.5534,5.5534,5.5552,5.5673,5.5712,5.5724,5.5877,5.5768,5.5776,5.5781,5.5785,5.6134,5.6138,0,0,0,0,0,0,5.5245,5.5272,5.5486,5.5495,5.535,5.5458,5.5475,5.5526,5.5616,5.5627,5.5554,5.5551,5.5697,5.5713,5.5729,5.588,5.5777,5.5786,5.5791,5.613,5.6135,5.6139,0,0,0,0,0,0,5.5239,5.5264,5.548,5.5384,5.5411,5.5466,5.5524,5.5531,5.5569,5.5632,5.5641,5.5583,5.5695,5.5716,5.5829,5.5885,5.579,5.5798,5.6126,5.6132,5.6137,5.618,0,0,0,0,0,0,5.523,5.5262,5.5308,5.5385,5.5416,5.5576,5.5527,5.5536,5.5585,5.5582,5.5661,5.5671,5.5695,5.5815,5.5838,5.5896,5.5806,5.6121,5.6129,5.6135,5.6174,5.6186,5.6197,0,0,0,0,0,5.522,5.5314,5.531,5.5336,5.5475,5.5579,5.5597,5.5622,5.559,5.5637,5.5677,5.5669,5.5875,5.5826,5.5852,5.5914,5.6118,5.6127,5.6135,5.6169,5.6184,5.6197,0,0,0,0,0,0,5.5242,5.5324,5.5321,5.5443,5.5504,5.5578,5.5638,5.5637,5.5709,5.5703,5.573,5.5748,5.5861,5.5899,5.5843,5.6037,5.5992,5.6006,5.6009,5.6024,5.6036,5.6025,5.5813,0,0,0,0,0,5.5261,5.5339,5.5406,5.5507,5.5538,5.5583,5.5629,5.5643,5.5707,5.5733,5.5782,5.5846,5.5925,5.5976,5.6052,5.6179,5.6197,5.6234,5.6246,5.6255,5.6267,5.6339,5.6357,5.6167,5.6167,5.6167,0,0,5.5302,5.5356,5.5403,5.5513,5.5562,5.5642,5.5605,5.5691,5.5751,5.5747,5.5856,5.5894,5.5967,5.6087,5.6142,5.6122,5.6324,5.6266,5.6273,5.628,5.6349,5.6367,5.6383,5.6172,5.6171,5.6171,0,0,5.5416,5.5464,5.5554,5.5605,5.568,5.5709,5.5731,5.5806,5.5831,5.5941,5.594,5.6012,5.6147,5.62,5.6244,5.6381,5.6377,5.6405,5.6466,5.6536,5.6551,5.6564,5.6615,5.6632,5.6416,5.6417,5.6417,0,5.5457,5.5577,5.5601,5.5688,5.5738,5.5737,5.583,5.5877,5.5974,5.6008,5.5983,5.6154,5.6203,5.6337,5.637,5.6406,5.6433,5.6396,5.6547,5.656,5.6573,5.6622,5.6641,5.642,5.6419,5.6419,5.6419,0,5.5625,5.5708,5.5772,5.5866,5.5922,5.6011,5.605,5.6104,5.6113,5.6145,5.6259,5.6317,5.6406,5.6439,5.6448,5.6575,5.656,5.654,5.6496,5.6594,5.664,5.6659,5.6424,5.6423,5.6422,5.6421,0,0,5.5757,5.5864,5.5887,5.593,5.6014,5.6079,5.6169,5.6257,5.6304,5.637,5.6448,5.6563,5.6546,5.6597,5.6612,5.6673,5.678,5.6647,5.6649,5.6671,5.6925,5.6941,5.6962,5.6777,5.678,5.6783,5.692,0,5.5882,5.6041,5.6066,5.6207,5.6286,5.6287,5.6366,5.6427,5.646,5.6532,5.6569,5.6651,5.6621,5.6652,5.6712,5.6754,5.6832,5.6744,5.6851,5.6854,5.6834,5.6985,5.7002,5.7127,5.6938,5.6941,5.6943,0,5.6048,5.612,5.6269,5.6344,5.6378,5.6448,5.6531,5.66,5.6669,5.6689,5.6746,5.6755,5.685,5.68,5.6932,5.6872,5.6917,5.6944,5.695,5.6962,5.6906,5.7003,5.7168,5.7188,5.6971,5.6969,5.6967,0,5.6133,5.6267,5.6374,5.641,5.65,5.6549,5.6589,5.6655,5.6706,5.6779,5.6813,5.6896,5.6941,5.7005,5.7036,5.6997,5.7167,5.712,5.7188,5.7187,5.7224,5.7222,5.74,5.7251,5.725,5.725,5.725,0,5.627,5.6362,5.6413,5.6479,5.6582,5.661,5.6712,5.675,5.6809,5.6883,5.6889,5.6959,5.6995,5.707,5.7095,5.7202,5.7222,5.7241,5.7247,5.7242,5.724,5.7273,5.7266,5.7255,5.7254,5.7253,5.7252,0,5.6382,5.642,5.6537,5.6612,5.6634,5.6707,5.6771,5.6836,5.6869,5.6963,5.6987,5.7039,5.7128,5.7165,5.7275,5.7291,5.7415,5.7413,5.7392,5.7394,5.7461,5.7455,5.7668,5.7698,5.7527,5.7528,5.7529,0,5.6468,5.6539,5.6622,5.6672,5.6714,5.6794,5.6847,5.6878,5.6933,5.7018,5.7073,5.7162,5.7235,5.7378,5.7426,5.751,5.7512,5.7581,5.7525,5.7518,5.7516,5.7512,5.752,5.7592,5.7593,5.7595,5.7596,0,5.6618,5.6633,5.6709,5.6793,5.6856,5.6923,5.6988,5.7029,5.707,5.7131,5.7223,5.728,5.7392,5.7482,5.7569,5.761,5.7611,5.7613,5.7634,5.763,5.7616,5.7626,5.7422,5.7608,5.7607,5.7606,5.7606,5.7605,5.6721,5.6785,5.6854,5.6939,5.6991,5.7053,5.7118,5.7159,5.7236,5.733,5.7343,5.7442,5.7511,5.7629,5.7674,5.7752,5.7734,5.7764,5.7771,5.7779,5.7784,5.7602,5.7768,5.7767,5.7767,5.7767,5.7766,0,5.6872,5.6917,5.6995,5.7087,5.7154,5.7148,5.7221,5.7278,5.7364,5.7429,5.7501,5.7607,5.7694,5.775,5.7838,5.789,5.7892,5.7912,5.7909,5.7919,5.7794,5.7768,5.7909,5.7909,5.7909,5.7909,5.7908,5.7908,5.6959,5.7067,5.7091,5.7226,5.727,5.7367,5.741,5.7467,5.7519,5.7637,5.771,5.7745,5.7806,5.7899,5.7979,5.7993,5.8026,5.8048,5.8061,5.7943,5.7928,5.7914,5.789,5.8054,5.8054,5.8181,5.8182,5.8183]}]]